Weather in Zilair

Russia / Republic of Bashkortostan     52°14′00″N   57°26′32″E
temp.,
°C
wind,
m/s
gust,
m/s
humid.,
%
clouds,
%
prec.,
mm/h
press.,
hPa
HPBL,
m
27 february, sat
sat2723:00−24ese39100100 0.1 1024195
02:00−24ese3899100 0.1 1022198
05:00−22ese3998100 0.1 1019249
08:00−20se51198100 0.4 1014314
11:00−15se61495100 3.6 1011449
14:00−8sse51194100 1.1 1007662
17:00−6s4995100 2.2 1005497
20:00−6s3896100 0.9 1003304
28 february, sun
sun2823:00−3wsw41096100 1.6 1003613
02:00−4ssw3997100 0.4 1002335
05:00−2sw3897100 1.4 1001599
08:00−5ssw389798 0.7 1000369
11:00−2sw489699 1.7 1000600
14:00−2wsw5896100 1.4 1000721
17:00−3w4794100 1.9 1003613
20:00−9wsw499597 0.1 1006343
1 march, mon
mon123:00−12wsw399898 0.2 1009215
02:00−15w3699100 0.1 1011141
05:00−14w2697100 0.1 1013183
08:00−16w2397100 0.2 101587
11:00−12wsw2394100 0.4 1016258
14:00−10w3494100 0.3 1017404
17:00−12w3594100 0.4 1017380
20:00−16w3698100 0.1 1019173
2 march, tue
tue223:00−17w2599100 0.1 1020117
02:00−18w259992 0.1 1020125
05:00−20wnw2510096 0.1 1020100
08:00−22w25100100 0.0 1020105
11:00−17w3699100 0.1 1020244
14:00−14w479799 0.0 1019354
17:00−16wsw489799 0.1 1018328
20:00−22wsw39100100 0.0 1018179
3 march, wed
wed323:00−20sw310100100 0.1 1017230
02:00−18ssw31098100 0.1 1014258
05:00−14ssw41395100 0.4 1012373
08:00−10ssw51494100 0.8 1009539
11:00−5ssw61295100 1.3 1007819
14:00−4ssw61195100 1.3 1005906
17:00−3ssw61195100 2.4 1004905
20:00−3ssw41096100 1.3 1002724